| time (UTC) | temp F | wind direction | speed knots | gust knots | rain 1hr in | rain 24hr in | rain mn in | humidity % | barometer mb |
| 20260906181346 | 98 | 121 | 0.0 | 2.6 | 0.00 | 0.00 | 0.00 | 46 | 1016.4 |
| 20260906180841 | 98 | 138 | 0.9 | 3.5 | 0.00 | 0.00 | 0.00 | 49 | 1016.4 |
| 20260906180336 | 97 | 79 | 0.9 | 1.7 | 0.00 | 0.00 | 0.00 | 49 | 1016.4 |
| 20260906175833 | 98 | 129 | 0.9 | 1.7 | 0.00 | 0.00 | 0.00 | 48 | 1016.4 |
| 20260906175329 | 97 | 97 | 3.5 | 3.5 | 0.00 | 0.00 | 0.00 | 48 | 1016.6 |
| 20260906174828 | 97 | 92 | 0.0 | 1.7 | 0.00 | 0.00 | 0.00 | 50 | 1016.8 |
| 20260906174327 | 97 | 119 | 0.0 | 0.9 | 0.00 | 0.00 | 0.00 | 48 | 1016.7 |
| 20260906173822 | 97 | 107 | 0.0 | 0.9 | 0.00 | 0.00 | 0.00 | 50 | 1016.8 |
| 20260906173318 | 97 | 165 | 0.9 | 2.6 | 0.00 | 0.00 | 0.00 | 49 | 1016.9 |
| 20260906172817 | 97 | 129 | 0.0 | 1.7 | 0.00 | 0.00 | 0.00 | 48 | 1016.9 |
| 20260906172313 | 98 | 128 | 0.9 | 1.7 | 0.00 | 0.00 | 0.00 | 48 | 1017.2 |
| 20260906171814 | 97 | 121 | 0.0 | 2.6 | 0.00 | 0.00 | 0.00 | 48 | 1017.1 |
| 20260906171308 | 96 | 169 | 1.7 | 2.6 | 0.00 | 0.00 | 0.00 | 50 | 1017.4 |
| 20260906170804 | 97 | 209 | 2.6 | 2.6 | 0.00 | 0.00 | 0.00 | 48 | 1017.3 |
| 20260906170300 | 97 | 157 | 1.7 | 2.6 | 0.00 | 0.00 | 0.00 | 49 | 1017.3 |
| 20260906165756 | 97 | 125 | 3.5 | 3.5 | 0.00 | 0.00 | 0.00 | 48 | 1017.4 |
| 20260906165256 | 96 | 100 | 0.0 | 2.6 | 0.00 | 0.00 | 0.00 | 50 | 1017.4 |
| 20260906164756 | 96 | 138 | 0.9 | 3.5 | 0.00 | 0.00 | 0.00 | 49 | 1017.4 |
| 20260906164256 | 96 | 120 | 0.0 | 2.6 | 0.00 | 0.00 | 0.00 | 48 | 1017.2 |
| 20260906163752 | 97 | 83 | 0.0 | 2.6 | 0.00 | 0.00 | 0.00 | 49 | 1017.5 |
| 20260906163248 | 97 | 93 | 0.9 | 2.6 | 0.00 | 0.00 | 0.00 | 50 | 1017.5 |
| 20260906162745 | 96 | 108 | 0.0 | 1.7 | 0.00 | 0.00 | 0.00 | 52 | 1017.5 |
| 20260906162240 | 95 | 50 | 0.0 | 2.6 | 0.00 | 0.00 | 0.00 | 52 | 1017.5 |
| 20260906161739 | 94 | 133 | 0.9 | 1.7 | 0.00 | 0.00 | 0.00 | 55 | 1017.5 |
| 20260906161239 | 94 | 123 | 0.0 | 1.7 | 0.00 | 0.00 | 0.00 | 54 | 1017.6 |
| 20260906160738 | 95 | 89 | 1.7 | 3.5 | 0.00 | 0.00 | 0.00 | 53 | 1017.6 |
| 20260906160237 | 93 | 112 | 1.7 | 2.6 | 0.00 | 0.00 | 0.00 | 55 | 1017.5 |
| 20260906155735 | 95 | 77 | 2.6 | 3.5 | 0.00 | 0.00 | 0.00 | 54 | 1017.5 |
| 20260906155230 | 95 | 106 | 0.0 | 0.9 | 0.00 | 0.00 | 0.00 | 51 | 1017.4 |
| 20260906154725 | 94 | 115 | 0.0 | 5.2 | 0.00 | 0.00 | 0.00 | 55 | 1017.4 |
| 20260906154221 | 93 | 18 | 0.0 | 3.5 | 0.00 | 0.00 | 0.00 | 55 | 1017.2 |
| 20260906153719 | 93 | 124 | 2.6 | 2.6 | 0.00 | 0.00 | 0.00 | 54 | 1017.2 |
| 20260906153214 | 94 | 165 | 1.7 | 2.6 | 0.00 | 0.00 | 0.00 | 54 | 1017.2 |
| 20260906152709 | 92 | 157 | 1.7 | 3.5 | 0.00 | 0.00 | 0.00 | 56 | 1017.3 |
| 20260906152209 | 93 | 99 | 0.9 | 6.1 | 0.00 | 0.00 | 0.00 | 56 | 1017.2 |
| 20260906151703 | 92 | 82 | 0.0 | 2.6 | 0.00 | 0.00 | 0.00 | 58 | 1017.2 |
| 20260906151159 | 91 | 93 | 1.7 | 5.2 | 0.00 | 0.00 | 0.00 | 58 | 1017.3 |
| 20260906150654 | 91 | 151 | 1.7 | 2.6 | 0.00 | 0.00 | 0.00 | 58 | 1017.4 |
| 20260906150149 | 91 | 110 | 0.0 | 2.6 | 0.00 | 0.00 | 0.00 | 58 | 1017.4 |
| 20260906145649 | 89 | 111 | 0.9 | 2.6 | 0.00 | 0.00 | 0.00 | 61 | 1017.2 |
| 20260906145149 | 90 | 80 | 0.9 | 0.9 | 0.00 | 0.00 | 0.00 | 61 | 1017.2 |
| 20260906144648 | 90 | 130 | 0.9 | 2.6 | 0.00 | 0.00 | 0.00 | 59 | 1017.3 |
| 20260906144143 | 90 | 100 | 0.0 | 3.5 | 0.00 | 0.00 | 0.00 | 61 | 1017.4 |
| 20260906143643 | 90 | 107 | 0.9 | 1.7 | 0.00 | 0.00 | 0.00 | 61 | 1017.4 |
| 20260906143140 | 89 | 73 | 0.0 | 0.9 | 0.00 | 0.00 | 0.00 | 60 | 1017.5 |
| 20260906142639 | 89 | 106 | 0.9 | 1.7 | 0.00 | 0.00 | 0.00 | 61 | 1017.3 |
| 20260906142135 | 89 | 147 | 0.0 | 1.7 | 0.00 | 0.00 | 0.00 | 62 | 1017.4 |
| 20260906141633 | 88 | 66 | 0.0 | 0.0 | 0.00 | 0.00 | 0.00 | 63 | 1017.3 |
| 20260906141129 | 87 | 120 | 1.7 | 2.6 | 0.00 | 0.00 | 0.00 | 62 | 1017.2 |
| 20260906140628 | 87 | 96 | 0.9 | 1.7 | 0.00 | 0.00 | 0.00 | 64 | 1017.2 |
| 20260906140123 | 87 | 114 | 0.0 | 1.7 | 0.00 | 0.00 | 0.00 | 65 | 1017.2 |
| 20260906135620 | 86 | 83 | 0.0 | 1.7 | 0.00 | 0.00 | 0.00 | 65 | 1017.1 |
| 20260906135116 | 86 | 101 | 0.9 | 1.7 | 0.00 | 0.00 | 0.00 | 66 | 1017.1 |
| 20260906134611 | 85 | 120 | 1.7 | 3.5 | 0.00 | 0.00 | 0.00 | 67 | 1017.2 |
| 20260906134107 | 85 | 117 | 0.0 | 0.9 | 0.00 | 0.00 | 0.00 | 67 | 1017.0 |
| 20260906133602 | 85 | 127 | 0.9 | 1.7 | 0.00 | 0.00 | 0.00 | 66 | 1016.9 |
| 20260906133057 | 84 | 107 | 0.0 | 1.7 | 0.00 | 0.00 | 0.00 | 67 | 1017.0 |
| 20260906132552 | 84 | 113 | 0.0 | 2.6 | 0.00 | 0.00 | 0.00 | 68 | 1017.0 |
| 20260906132048 | 84 | 110 | 2.6 | 2.6 | 0.00 | 0.00 | 0.00 | 67 | 1017.0 |
| 20260906131543 | 84 | 100 | 0.0 | 0.9 | 0.00 | 0.00 | 0.00 | 68 | 1016.7 |
| 20260906131038 | 83 | 109 | 0.0 | 3.5 | 0.00 | 0.00 | 0.00 | 69 | 1016.7 |
| 20260906130538 | 83 | 103 | 0.0 | 2.6 | 0.00 | 0.00 | 0.00 | 69 | 1016.6 |
| 20260906130033 | 82 | 92 | 0.9 | 2.6 | 0.00 | 0.00 | 0.00 | 70 | 1016.5 |
| 20260906125531 | 82 | 107 | 0.0 | 0.9 | 0.00 | 0.00 | 0.00 | 71 | 1016.4 |
| 20260906125030 | 81 | 103 | 0.0 | 1.7 | 0.00 | 0.00 | 0.00 | 71 | 1016.5 |
| 20260906124526 | 81 | 82 | 0.0 | 1.7 | 0.00 | 0.00 | 0.00 | 72 | 1016.5 |
| 20260906124021 | 80 | 89 | 0.0 | 1.7 | 0.00 | 0.00 | 0.00 | 73 | 1016.5 |
| 20260906123520 | 80 | 112 | 0.0 | 0.9 | 0.00 | 0.00 | 0.00 | 74 | 1016.4 |
| 20260906123016 | 80 | 93 | 0.0 | 1.7 | 0.00 | 0.00 | 0.00 | 74 | 1016.4 |
| 20260906122515 | 79 | 125 | 0.0 | 0.0 | 0.00 | 0.00 | 0.00 | 76 | 1016.3 |
| 20260906122011 | 79 | 127 | 0.0 | 0.0 | 0.00 | 0.00 | 0.00 | 76 | 1016.1 |
| 20260906121507 | 79 | 106 | 0.0 | 0.0 | 0.00 | 0.00 | 0.00 | 75 | 1016.1 |
| 20260906121003 | 79 | 107 | 0.0 | 0.0 | 0.00 | 0.00 | 0.00 | 76 | 1016.3 |
| 20260906120458 | 79 | 137 | 0.0 | 0.0 | 0.00 | 0.00 | 0.00 | 75 | 1016.1 |
| 20260906115954 | 79 | 121 | 0.0 | 0.0 | 0.00 | 0.00 | 0.00 | 75 | 1016.1 |
| 20260906115450 | 79 | 115 | 0.0 | 2.6 | 0.00 | 0.00 | 0.00 | 75 | 1016.1 |
| 20260906114950 | 79 | 100 | 0.0 | 2.6 | 0.00 | 0.00 | 0.00 | 75 | 1016.1 |
| 20260906114444 | 79 | 113 | 0.0 | 0.0 | 0.00 | 0.00 | 0.00 | 75 | 1016.1 |
| 20260906113941 | 79 | 105 | 0.0 | 0.9 | 0.00 | 0.00 | 0.00 | 75 | 1016.2 |
| 20260906113439 | 79 | 86 | 0.0 | 0.9 | 0.00 | 0.00 | 0.00 | 75 | 1016.2 |
| 20260906112935 | 79 | 97 | 0.0 | 0.9 | 0.00 | 0.00 | 0.00 | 75 | 1016.2 |
| 20260906112430 | 79 | 113 | 0.0 | 0.0 | 0.00 | 0.00 | 0.00 | 75 | 1016.0 |
| 20260906111925 | 78 | 115 | 0.0 | 0.0 | 0.00 | 0.00 | 0.00 | 77 | 1015.9 |
| 20260906111425 | 78 | 122 | 0.0 | 0.0 | 0.00 | 0.00 | 0.00 | 76 | 1015.9 |
| 20260906110920 | 78 | 121 | 0.0 | 0.0 | 0.00 | 0.00 | 0.00 | 77 | 1015.9 |
| 20260906110415 | 78 | 109 | 0.0 | 0.0 | 0.00 | 0.00 | 0.00 | 78 | 1015.9 |
| 20260906105914 | 78 | 108 | 0.0 | 0.0 | 0.00 | 0.00 | 0.00 | 77 | 1015.9 |
| 20260906105410 | 77 | 107 | 0.0 | 0.0 | 0.00 | 0.00 | 0.00 | 78 | 1015.9 |
| 20260906104906 | 77 | 98 | 0.0 | 0.0 | 0.00 | 0.00 | 0.00 | 80 | 1015.9 |
| 20260906104404 | 77 | 114 | 0.0 | 0.0 | 0.00 | 0.00 | 0.00 | 81 | 1015.9 |
| 20260906103903 | 77 | 114 | 0.0 | 0.0 | 0.00 | 0.00 | 0.00 | 81 | 1015.8 |
| 20260906103402 | 77 | 114 | 0.0 | 0.0 | 0.00 | 0.00 | 0.00 | 80 | 1015.9 |
| 20260906102858 | 77 | 114 | 0.0 | 0.0 | 0.00 | 0.00 | 0.00 | 80 | 1015.7 |
| 20260906102357 | 77 | 114 | 0.0 | 0.0 | 0.00 | 0.00 | 0.00 | 79 | 1016.0 |
| 20260906101851 | 78 | 114 | 0.0 | 0.0 | 0.00 | 0.00 | 0.00 | 79 | 1015.7 |
| 20260906101347 | 78 | 114 | 0.0 | 0.0 | 0.00 | 0.00 | 0.00 | 79 | 1015.7 |
| 20260906100842 | 79 | 114 | 0.0 | 0.0 | 0.00 | 0.00 | 0.00 | 76 | 1015.8 |
| 20260906100341 | 79 | 114 | 0.0 | 0.0 | 0.00 | 0.00 | 0.00 | 75 | 1015.5 |
| 20260906095837 | 80 | 114 | 0.0 | 0.0 | 0.00 | 0.00 | 0.00 | 74 | 1015.6 |
| 20260906095332 | 80 | 94 | 0.0 | 0.0 | 0.00 | 0.00 | 0.00 | 74 | 1015.6 |
| 20260906094831 | 80 | 100 | 0.0 | 0.9 | 0.00 | 0.00 | 0.00 | 75 | 1015.5 |
| 20260906094327 | 80 | 103 | 0.0 | 0.0 | 0.00 | 0.00 | 0.00 | 74 | 1015.7 |
| 20260906093823 | 79 | 101 | 0.0 | 0.0 | 0.00 | 0.00 | 0.00 | 75 | 1015.7 |
| 20260906093319 | 80 | 111 | 0.0 | 0.0 | 0.00 | 0.00 | 0.00 | 74 | 1015.7 |
| 20260906092814 | 80 | 114 | 0.0 | 0.9 | 0.00 | 0.00 | 0.00 | 73 | 1015.6 |
| 20260906092313 | 80 | 115 | 0.0 | 0.0 | 0.00 | 0.00 | 0.00 | 73 | 1015.6 |
| 20260906091809 | 79 | 98 | 0.0 | 0.0 | 0.00 | 0.00 | 0.00 | 74 | 1015.5 |
| 20260906091305 | 79 | 121 | 0.0 | 0.0 | 0.00 | 0.00 | 0.00 | 75 | 1015.7 |
| 20260906090801 | 78 | 122 | 0.0 | 0.0 | 0.00 | 0.00 | 0.00 | 77 | 1015.6 |
| 20260906090300 | 78 | 122 | 0.0 | 0.0 | 0.00 | 0.00 | 0.00 | 77 | 1015.4 |
| 20260906085801 | 78 | 122 | 0.0 | 0.0 | 0.00 | 0.00 | 0.00 | 77 | 1015.5 |
| 20260906085259 | 78 | 122 | 0.0 | 0.0 | 0.00 | 0.00 | 0.00 | 77 | 1015.4 |
| 20260906084754 | 78 | 122 | 0.0 | 0.0 | 0.00 | 0.00 | 0.00 | 77 | 1015.3 |
| 20260906084254 | 79 | 122 | 0.0 | 0.0 | 0.00 | 0.00 | 0.00 | 76 | 1015.3 |
| 20260906083749 | 78 | 122 | 0.0 | 0.0 | 0.00 | 0.00 | 0.00 | 76 | 1015.3 |
| 20260906083245 | 78 | 118 | 0.0 | 0.0 | 0.00 | 0.00 | 0.00 | 78 | 1015.2 |
| 20260906082739 | 78 | 118 | 0.0 | 0.0 | 0.00 | 0.00 | 0.00 | 78 | 1015.2 |
| 20260906082235 | 78 | 118 | 0.0 | 0.0 | 0.00 | 0.00 | 0.00 | 78 | 1015.3 |
| 20260906081731 | 78 | 118 | 0.0 | 0.0 | 0.00 | 0.00 | 0.00 | 77 | 1015.2 |
| 20260906081231 | 79 | 118 | 0.0 | 0.0 | 0.00 | 0.00 | 0.00 | 76 | 1015.0 |
| 20260906080728 | 79 | 118 | 0.0 | 0.0 | 0.00 | 0.00 | 0.00 | 75 | 1015.2 |
| 20260906080224 | 79 | 118 | 0.0 | 0.0 | 0.00 | 0.00 | 0.00 | 75 | 1015.2 |
| 20260906075724 | 79 | 118 | 0.0 | 0.0 | 0.00 | 0.00 | 0.00 | 75 | 1015.2 |
| 20260906075224 | 80 | 118 | 0.0 | 0.0 | 0.00 | 0.00 | 0.00 | 74 | 1015.3 |
| 20260906074719 | 80 | 118 | 0.0 | 0.0 | 0.00 | 0.00 | 0.00 | 73 | 1015.2 |
| 20260906074218 | 81 | 118 | 0.0 | 0.0 | 0.00 | 0.00 | 0.00 | 71 | 1015.4 |
| 20260906073713 | 80 | 115 | 0.0 | 0.0 | 0.00 | 0.00 | 0.00 | 73 | 1015.2 |
| 20260906073208 | 79 | 126 | 0.0 | 0.0 | 0.00 | 0.00 | 0.00 | 74 | 1015.2 |
| 20260906072704 | 80 | 126 | 0.0 | 0.0 | 0.00 | 0.00 | 0.00 | 73 | 1015.3 |
| 20260906072159 | 79 | 126 | 0.0 | 0.9 | 0.00 | 0.00 | 0.00 | 74 | 1015.3 |
| 20260906071655 | 80 | 104 | 0.0 | 0.0 | 0.00 | 0.00 | 0.00 | 74 | 1015.2 |
| 20260906071154 | 80 | 104 | 0.0 | 0.0 | 0.00 | 0.00 | 0.00 | 73 | 1015.4 |
| 20260906070651 | 81 | 104 | 0.0 | 0.0 | 0.00 | 0.00 | 0.00 | 72 | 1015.4 |
| 20260906070147 | 81 | 104 | 0.0 | 0.0 | 0.00 | 0.00 | 0.00 | 71 | 1015.3 |
| 20260906065646 | 82 | 104 | 0.0 | 0.0 | 0.00 | 0.00 | 0.00 | 69 | 1015.4 |
| 20260906065141 | 83 | 104 | 0.0 | 0.0 | 0.00 | 0.00 | 0.00 | 66 | 1015.2 |
| 20260906064637 | 83 | 103 | 0.0 | 0.0 | 0.00 | 0.00 | 0.00 | 64 | 1015.4 |
| 20260906064132 | 84 | 120 | 0.0 | 0.0 | 0.00 | 0.00 | 0.00 | 65 | 1015.5 |
| 20260906063628 | 84 | 110 | 0.0 | 0.0 | 0.00 | 0.00 | 0.00 | 64 | 1015.5 |
| 20260906063123 | 84 | 123 | 0.0 | 0.0 | 0.00 | 0.00 | 0.00 | 63 | 1015.4 |
| 20260906062619 | 85 | 121 | 0.0 | 0.9 | 0.00 | 0.00 | 0.00 | 62 | 1015.5 |
| 20260906062117 | 85 | 112 | 0.0 | 0.9 | 0.00 | 0.00 | 0.00 | 63 | 1015.5 |
| 20260906061614 | 85 | 123 | 0.0 | 0.0 | 0.00 | 0.00 | 0.00 | 63 | 1015.4 |
| 20260906061113 | 85 | 120 | 0.0 | 1.7 | 0.00 | 0.00 | 0.00 | 63 | 1015.4 |
| 20260906060611 | 84 | 132 | 0.0 | 0.9 | 0.00 | 0.00 | 0.00 | 64 | 1015.7 |
| 20260906060108 | 84 | 131 | 0.9 | 1.7 | 0.00 | 0.00 | 0.00 | 64 | 1015.5 |
| 20260906055603 | 84 | 104 | 0.0 | 0.0 | 0.00 | 0.00 | 0.00 | 64 | 1015.6 |
| 20260906055058 | 84 | 95 | 0.0 | 0.9 | 0.00 | 0.00 | 0.00 | 64 | 1015.5 |
| 20260906054558 | 84 | 95 | 0.0 | 0.9 | 0.00 | 0.00 | 0.00 | 64 | 1015.6 |
| 20260906054053 | 84 | 124 | 0.0 | 0.9 | 0.00 | 0.00 | 0.00 | 65 | 1015.8 |
| 20260906053550 | 85 | 108 | 0.0 | 0.0 | 0.00 | 0.00 | 0.00 | 64 | 1015.8 |
| 20260906053045 | 85 | 114 | 0.0 | 0.0 | 0.00 | 0.00 | 0.00 | 63 | 1015.6 |
| 20260906052540 | 85 | 120 | 0.0 | 0.0 | 0.00 | 0.00 | 0.00 | 64 | 1015.8 |
| 20260906052037 | 85 | 112 | 0.0 | 0.0 | 0.00 | 0.00 | 0.00 | 63 | 1015.7 |
| 20260906051533 | 85 | 115 | 0.0 | 0.0 | 0.00 | 0.00 | 0.00 | 66 | 1015.7 |
| 20260906051028 | 85 | 117 | 0.0 | 0.9 | 0.00 | 0.00 | 0.00 | 63 | 1015.8 |
| 20260906050523 | 85 | 112 | 0.0 | 0.0 | 0.00 | 0.00 | 0.00 | 66 | 1015.7 |
| 20260906050018 | 85 | 126 | 0.0 | 0.0 | 0.00 | 0.00 | 0.00 | 65 | 1015.7 |
| 20260906045516 | 85 | 119 | 0.0 | 0.9 | 0.00 | 0.00 | 0.00 | 63 | 1015.9 |
| 20260906045012 | 85 | 121 | 0.0 | 0.9 | 0.00 | 0.00 | 0.00 | 64 | 1015.5 |
| 20260906044507 | 85 | 118 | 0.0 | 0.0 | 0.00 | 0.00 | 0.00 | 64 | 1015.8 |
| 20260906044003 | 85 | 118 | 0.0 | 0.9 | 0.00 | 0.00 | 0.00 | 65 | 1015.7 |
| 20260906043458 | 85 | 110 | 0.0 | 0.0 | 0.00 | 0.00 | 0.00 | 65 | 1015.7 |
| 20260906042954 | 86 | 110 | 0.0 | 0.0 | 0.00 | 0.00 | 0.00 | 66 | 1015.8 |
| 20260906042453 | 85 | 106 | 0.0 | 0.9 | 0.00 | 0.00 | 0.00 | 65 | 1015.8 |
| 20260906041953 | 85 | 111 | 0.0 | 0.9 | 0.00 | 0.00 | 0.00 | 66 | 1015.6 |
| 20260906041450 | 84 | 112 | 0.0 | 0.0 | 0.00 | 0.00 | 0.00 | 68 | 1015.6 |
| 20260906040948 | 85 | 112 | 0.0 | 0.0 | 0.00 | 0.00 | 0.00 | 66 | 1015.6 |
| 20260906040444 | 86 | 117 | 0.0 | 0.0 | 0.00 | 0.00 | 0.00 | 67 | 1015.5 |
| 20260906035939 | 86 | 118 | 0.0 | 0.0 | 0.00 | 0.00 | 0.00 | 66 | 1015.5 |
| 20260906035435 | 86 | 120 | 0.0 | 0.0 | 0.00 | 0.00 | 0.00 | 65 | 1015.4 |
| 20260906034931 | 86 | 107 | 0.0 | 0.0 | 0.00 | 0.00 | 0.00 | 65 | 1015.4 |
| 20260906034431 | 87 | 110 | 0.0 | 0.9 | 0.00 | 0.00 | 0.00 | 64 | 1015.5 |
| 20260906033926 | 87 | 117 | 0.0 | 0.9 | 0.00 | 0.00 | 0.00 | 63 | 1015.5 |
| 20260906033426 | 87 | 122 | 0.0 | 0.0 | 0.00 | 0.00 | 0.00 | 63 | 1015.6 |
| 20260906032922 | 87 | 104 | 0.0 | 0.0 | 0.00 | 0.00 | 0.00 | 62 | 1015.3 |
| 20260906032418 | 87 | 124 | 0.0 | 0.0 | 0.00 | 0.00 | 0.00 | 62 | 1015.3 |
| 20260906031912 | 87 | 114 | 0.0 | 0.0 | 0.00 | 0.00 | 0.00 | 62 | 1015.3 |
| 20260906031409 | 88 | 112 | 0.0 | 0.0 | 0.00 | 0.00 | 0.00 | 62 | 1015.3 |
| 20260906030908 | 88 | 109 | 1.7 | 1.7 | 0.00 | 0.00 | 0.00 | 61 | 1015.5 |
| 20260906030404 | 88 | 147 | 0.9 | 0.9 | 0.00 | 0.00 | 0.00 | 62 | 1015.2 |
| 20260906025858 | 88 | 128 | 0.0 | 0.9 | 0.00 | 0.00 | 0.00 | 61 | 1015.2 |
| 20260906025352 | 88 | 105 | 0.0 | 0.0 | 0.00 | 0.00 | 0.00 | 62 | 1014.8 |
| 20260906024851 | 88 | 112 | 0.0 | 0.0 | 0.00 | 0.00 | 0.00 | 62 | 1014.8 |
| 20260906024351 | 88 | 115 | 0.0 | 0.0 | 0.00 | 0.00 | 0.00 | 62 | 1014.7 |
| 20260906023846 | 88 | 121 | 0.0 | 0.0 | 0.00 | 0.00 | 0.00 | 61 | 1014.6 |
| 20260906023342 | 89 | 106 | 0.0 | 0.0 | 0.00 | 0.00 | 0.00 | 61 | 1014.6 |
| 20260906022837 | 88 | 109 | 0.0 | 0.0 | 0.00 | 0.00 | 0.00 | 60 | 1014.5 |
| 20260906022337 | 89 | 108 | 0.0 | 0.0 | 0.00 | 0.00 | 0.00 | 60 | 1014.5 |
| 20260906021833 | 89 | 117 | 0.0 | 0.0 | 0.00 | 0.00 | 0.00 | 60 | 1014.4 |
| 20260906021332 | 89 | 106 | 0.0 | 0.0 | 0.00 | 0.00 | 0.00 | 59 | 1014.2 |
| 20260906020827 | 89 | 118 | 0.0 | 0.0 | 0.00 | 0.00 | 0.00 | 59 | 1014.2 |
| 20260906020327 | 89 | 106 | 0.0 | 0.0 | 0.00 | 0.00 | 0.00 | 59 | 1014.3 |
| 20260906015821 | 90 | 106 | 0.0 | 0.0 | 0.00 | 0.00 | 0.00 | 58 | 1014.1 |
| 20260906015321 | 90 | 118 | 0.0 | 0.0 | 0.00 | 0.00 | 0.00 | 57 | 1014.1 |
| 20260906014820 | 90 | 114 | 0.0 | 0.9 | 0.00 | 0.00 | 0.00 | 57 | 1014.1 |
| 20260906014316 | 90 | 114 | 0.0 | 0.9 | 0.00 | 0.00 | 0.00 | 57 | 1014.0 |
| 20260906013812 | 91 | 96 | 0.0 | 0.9 | 0.00 | 0.00 | 0.00 | 56 | 1014.0 |
| 20260906013307 | 90 | 104 | 0.0 | 0.0 | 0.00 | 0.00 | 0.00 | 57 | 1013.9 |
| 20260906012803 | 90 | 115 | 0.0 | 0.0 | 0.00 | 0.00 | 0.00 | 57 | 1013.8 |
| 20260906012306 | 90 | 135 | 0.0 | 0.0 | 0.00 | 0.00 | 0.00 | 57 | 1013.8 |
| 20260906011758 | 89 | 135 | 0.0 | 0.0 | 0.00 | 0.00 | 0.00 | 57 | 1013.8 |
| 20260906011258 | 87 | 135 | 0.0 | 0.0 | 0.00 | 0.00 | 0.00 | 59 | 1013.6 |
| 20260906010754 | 88 | 135 | 0.0 | 0.0 | 0.00 | 0.00 | 0.00 | 57 | 1013.6 |
| 20260906010250 | 88 | 135 | 0.0 | 0.0 | 0.00 | 0.00 | 0.00 | 57 | 1013.6 |
| 20260906005745 | 88 | 135 | 0.0 | 0.0 | 0.00 | 0.00 | 0.00 | 57 | 1013.5 |
| 20260906005244 | 89 | 135 | 0.0 | 0.0 | 0.00 | 0.00 | 0.00 | 56 | 1013.5 |
| 20260906004743 | 89 | 135 | 0.0 | 0.0 | 0.00 | 0.00 | 0.00 | 57 | 1013.7 |
| 20260906004238 | 89 | 135 | 0.0 | 0.0 | 0.00 | 0.00 | 0.00 | 56 | 1013.8 |
| 20260906003733 | 90 | 135 | 0.0 | 0.0 | 0.00 | 0.00 | 0.00 | 55 | 1013.5 |
| 20260906003229 | 91 | 135 | 0.0 | 0.0 | 0.00 | 0.00 | 0.00 | 52 | 1013.6 |
| 20260906002729 | 92 | 135 | 0.0 | 0.0 | 0.00 | 0.00 | 0.00 | 51 | 1013.5 |
| 20260906002228 | 93 | 135 | 0.0 | 0.0 | 0.00 | 0.00 | 0.00 | 49 | 1013.6 |
| 20260906001724 | 93 | 135 | 0.0 | 0.0 | 0.00 | 0.00 | 0.00 | 48 | 1013.5 |
| 20260906001219 | 94 | 135 | 0.0 | 0.0 | 0.00 | 0.00 | 0.00 | 47 | 1013.8 |
| 20260906000714 | 95 | 135 | 0.0 | 0.0 | 0.00 | 0.00 | 0.00 | 45 | 1013.7 |
| 20260906000211 | 96 | 135 | 0.0 | 0.9 | 0.00 | 0.00 | 0.00 | 44 | 1013.5 |
| 20260905235709 | 96 | 129 | 0.0 | 0.0 | 0.00 | 0.00 | 0.00 | 44 | 1013.4 |
| 20260905235204 | 97 | 130 | 0.0 | 0.0 | 0.00 | 0.00 | 0.00 | 42 | 1013.5 |
| 20260905234659 | 98 | 129 | 0.0 | 0.0 | 0.00 | 0.00 | 0.00 | 41 | 1013.7 |
| 20260905234154 | 99 | 119 | 0.0 | 0.0 | 0.00 | 0.00 | 0.00 | 40 | 1013.5 |
| 20260905233649 | 99 | 109 | 0.0 | 0.9 | 0.00 | 0.00 | 0.00 | 40 | 1013.5 |
| 20260905233149 | 98 | 123 | 0.0 | 1.7 | 0.00 | 0.00 | 0.00 | 41 | 1013.7 |
| 20260905232644 | 100 | 111 | 0.9 | 1.7 | 0.00 | 0.00 | 0.00 | 40 | 1013.6 |
| 20260905232140 | 100 | 131 | 0.0 | 0.0 | 0.00 | 0.00 | 0.00 | 40 | 1013.6 |
| 20260905231634 | 100 | 140 | 0.0 | 0.9 | 0.00 | 0.00 | 0.00 | 39 | 1013.4 |
| 20260905231131 | 100 | 110 | 0.0 | 0.9 | 0.00 | 0.00 | 0.00 | 39 | 1013.5 |
| 20260905230627 | 101 | 127 | 1.7 | 1.7 | 0.00 | 0.00 | 0.00 | 38 | 1013.5 |
| 20260905230125 | 101 | 136 | 0.0 | 0.0 | 0.00 | 0.00 | 0.00 | 38 | 1013.5 |
| 20260905225624 | 100 | 132 | 0.0 | 0.9 | 0.00 | 0.00 | 0.00 | 38 | 1013.6 |
| 20260905225120 | 100 | 129 | 0.0 | 0.0 | 0.00 | 0.00 | 0.00 | 38 | 1013.4 |
| 20260905224619 | 100 | 128 | 0.0 | 0.9 | 0.00 | 0.00 | 0.00 | 39 | 1013.4 |
| 20260905224118 | 101 | 166 | 0.0 | 2.6 | 0.00 | 0.00 | 0.00 | 38 | 1013.4 |
| 20260905223616 | 100 | 124 | 0.0 | 0.9 | 0.00 | 0.00 | 0.00 | 38 | 1013.7 |
| 20260905223112 | 101 | 104 | 0.9 | 1.7 | 0.00 | 0.00 | 0.00 | 37 | 1013.5 |
| 20260905222612 | 100 | 119 | 0.0 | 1.7 | 0.00 | 0.00 | 0.00 | 37 | 1013.5 |
| 20260905222107 | 101 | 138 | 0.9 | 3.5 | 0.00 | 0.00 | 0.00 | 36 | 1013.7 |
| 20260905221603 | 101 | 115 | 0.0 | 0.9 | 0.00 | 0.00 | 0.00 | 37 | 1013.6 |
| 20260905221059 | 102 | 147 | 1.7 | 2.6 | 0.00 | 0.00 | 0.00 | 37 | 1013.9 |
| 20260905220554 | 102 | 202 | 1.7 | 1.7 | 0.00 | 0.00 | 0.00 | 38 | 1013.8 |
| 20260905220051 | 101 | 152 | 0.9 | 1.7 | 0.00 | 0.00 | 0.00 | 37 | 1013.9 |
| 20260905215550 | 102 | 132 | 0.9 | 1.7 | 0.00 | 0.00 | 0.00 | 37 | 1014.0 |
| 20260905215046 | 101 | 278 | 0.9 | 1.7 | 0.00 | 0.00 | 0.00 | 37 | 1013.9 |
| 20260905214542 | 102 | 137 | 0.9 | 2.6 | 0.00 | 0.00 | 0.00 | 37 | 1013.9 |
| 20260905214037 | 101 | 144 | 0.9 | 0.9 | 0.00 | 0.00 | 0.00 | 38 | 1014.0 |
| 20260905213532 | 101 | 120 | 0.9 | 1.7 | 0.00 | 0.00 | 0.00 | 38 | 1014.0 |
| 20260905213027 | 102 | 240 | 1.7 | 2.6 | 0.00 | 0.00 | 0.00 | 38 | 1014.1 |
| 20260905212522 | 102 | 118 | 0.0 | 0.9 | 0.00 | 0.00 | 0.00 | 38 | 1014.2 |
| 20260905212021 | 102 | 91 | 1.7 | 6.1 | 0.00 | 0.00 | 0.00 | 37 | 1013.9 |
| 20260905211517 | 102 | 97 | 1.7 | 2.6 | 0.00 | 0.00 | 0.00 | 39 | 1014.2 |
| 20260905211013 | 101 | 127 | 0.0 | 1.7 | 0.00 | 0.00 | 0.00 | 37 | 1014.3 |
| 20260905210508 | 100 | 161 | 0.9 | 1.7 | 0.00 | 0.00 | 0.00 | 38 | 1014.3 |
| 20260905210008 | 100 | 112 | 1.7 | 1.7 | 0.00 | 0.00 | 0.00 | 37 | 1014.5 |
| 20260905205503 | 101 | 113 | 1.7 | 3.5 | 0.00 | 0.00 | 0.00 | 36 | 1014.3 |
| 20260905205001 | 102 | 131 | 1.7 | 1.7 | 0.00 | 0.00 | 0.00 | 35 | 1014.6 |
| 20260905204457 | 102 | 114 | 0.9 | 1.7 | 0.00 | 0.00 | 0.00 | 37 | 1014.5 |
| 20260905203956 | 102 | 117 | 0.9 | 2.6 | 0.00 | 0.00 | 0.00 | 36 | 1014.7 |
| 20260905203452 | 102 | 121 | 0.9 | 3.5 | 0.00 | 0.00 | 0.00 | 38 | 1014.6 |
| 20260905202947 | 102 | 142 | 0.9 | 0.9 | 0.00 | 0.00 | 0.00 | 36 | 1014.6 |
| 20260905202442 | 102 | 112 | 0.0 | 2.6 | 0.00 | 0.00 | 0.00 | 36 | 1014.9 |
| 20260905201938 | 101 | 126 | 0.0 | 0.0 | 0.00 | 0.00 | 0.00 | 35 | 1014.9 |
| 20260905201433 | 102 | 137 | 3.5 | 5.2 | 0.00 | 0.00 | 0.00 | 35 | 1014.9 |
| 20260905200933 | 102 | 125 | 0.9 | 1.7 | 0.00 | 0.00 | 0.00 | 39 | 1015.0 |
| 20260905200429 | 102 | 250 | 1.7 | 2.6 | 0.00 | 0.00 | 0.00 | 38 | 1015.2 |
| 20260905195927 | 101 | 134 | 0.9 | 2.6 | 0.00 | 0.00 | 0.00 | 39 | 1015.2 |
| 20260905195422 | 100 | 114 | 0.9 | 0.9 | 0.00 | 0.00 | 0.00 | 38 | 1015.3 |
| 20260905194918 | 101 | 107 | 1.7 | 2.6 | 0.00 | 0.00 | 0.00 | 38 | 1015.4 |
| 20260905194417 | 102 | 131 | 0.9 | 2.6 | 0.00 | 0.00 | 0.00 | 36 | 1015.2 |
| 20260905193917 | 100 | 155 | 1.7 | 2.6 | 0.00 | 0.00 | 0.00 | 40 | 1015.2 |
| 20260905193412 | 101 | 63 | 0.9 | 0.9 | 0.00 | 0.00 | 0.00 | 39 | 1015.5 |
| 20260905192907 | 99 | 81 | 0.9 | 1.7 | 0.00 | 0.00 | 0.00 | 40 | 1015.5 |
| 20260905192403 | 100 | 126 | 0.0 | 1.7 | 0.00 | 0.00 | 0.00 | 39 | 1015.4 |
| 20260905191902 | 101 | 160 | 2.6 | 2.6 | 0.00 | 0.00 | 0.00 | 39 | 1015.6 |
| 20260905191401 | 100 | 118 | 1.7 | 2.6 | 0.00 | 0.00 | 0.00 | 40 | 1015.7 |
| 20260905190856 | 102 | 124 | 0.9 | 3.5 | 0.00 | 0.00 | 0.00 | 41 | 1015.5 |
| 20260905190354 | 100 | 182 | 0.9 | 2.6 | 0.00 | 0.00 | 0.00 | 42 | 1015.7 |
| 20260905185853 | 100 | 145 | 1.7 | 3.5 | 0.00 | 0.00 | 0.00 | 41 | 1015.7 |
| 20260905185349 | 100 | 121 | 0.0 | 2.6 | 0.00 | 0.00 | 0.00 | 39 | 1015.8 |
| 20260905184848 | 99 | 112 | 0.0 | 2.6 | 0.00 | 0.00 | 0.00 | 40 | 1016.0 |
| 20260905184347 | 99 | 143 | 0.9 | 2.6 | 0.00 | 0.00 | 0.00 | 42 | 1015.9 |
| 20260905183845 | 100 | 126 | 1.7 | 6.1 | 0.00 | 0.00 | 0.00 | 41 | 1015.9 |
| 20260905183341 | 99 | 115 | 2.6 | 6.1 | 0.00 | 0.00 | 0.00 | 42 | 1016.0 |
| 20260905182842 | 100 | 177 | 1.7 | 2.6 | 0.00 | 0.00 | 0.00 | 42 | 1016.0 |
| 20260905182341 | 100 | 120 | 1.7 | 3.5 | 0.00 | 0.00 | 0.00 | 42 | 1016.2 |
| 20260905181837 | 100 | 114 | 1.7 | 3.5 | 0.00 | 0.00 | 0.00 | 42 | 1016.1 |